owner,sensor,date,latitude,longitude,vertical_datum,sea_water_temperature,qcFlag 
SCCF RECON,ioos:station:SCCF:13:1,2019-05-01T04:00:00Z,26.5255,-82.0032,2.33,26.94,11111222 
SCCF RECON,ioos:station:SCCF:13:1,2019-05-01T05:00:00Z,26.5255,-82.0032,2.33,26.71,11111222 
SCCF RECON,ioos:station:SCCF:13:1,2019-05-01T06:00:00Z,26.5255,-82.0032,2.33,26.76,11111222 
SCCF RECON,ioos:station:SCCF:13:1,2019-05-01T07:00:00Z,26.5255,-82.0032,2.33,26.69,11111222 
SCCF RECON,ioos:station:SCCF:13:1,2019-05-01T08:00:00Z,26.5255,-82.0032,2.33,26.44,11111222 
SCCF RECON,ioos:station:SCCF:13:1,2019-05-01T09:00:00Z,26.5255,-82.0032,2.33,26.25,11111222 
SCCF RECON,ioos:station:SCCF:13:1,2019-05-01T10:00:00Z,26.5255,-82.0032,2.33,26.25,11111222 
SCCF RECON,ioos:station:SCCF:13:1,2019-05-01T11:00:00Z,26.5255,-82.0032,2.33,26.21,11111222 
SCCF RECON,ioos:station:SCCF:13:1,2019-05-01T12:00:00Z,26.5255,-82.0032,2.33,26.2,11111222 
SCCF RECON,ioos:station:SCCF:13:1,2019-05-01T13:00:00Z,26.5255,-82.0032,2.33,26.13,11111222 
SCCF RECON,ioos:station:SCCF:13:1,2019-05-01T14:00:00Z,26.5255,-82.0032,2.33,26.3,11111222 
SCCF RECON,ioos:station:SCCF:13:1,2019-05-01T15:00:00Z,26.5255,-82.0032,2.33,26.46,11111222 
SCCF RECON,ioos:station:SCCF:13:1,2019-05-01T16:00:00Z,26.5255,-82.0032,2.33,26.51,11111222 
SCCF RECON,ioos:station:SCCF:13:1,2019-05-01T17:00:00Z,26.5255,-82.0032,2.33,26.44,11111222 
SCCF RECON,ioos:station:SCCF:13:1,2019-05-01T18:00:00Z,26.5255,-82.0032,2.33,26.43,11111222 
SCCF RECON,ioos:station:SCCF:13:1,2019-05-01T19:00:00Z,26.5255,-82.0032,2.33,26.56,11111222 
SCCF RECON,ioos:station:SCCF:13:1,2019-05-01T20:00:00Z,26.5255,-82.0032,2.33,26.67,11111222 
SCCF RECON,ioos:station:SCCF:13:1,2019-05-01T21:00:00Z,26.5255,-82.0032,2.33,26.88,11111222 
SCCF RECON,ioos:station:SCCF:13:1,2019-05-01T22:00:00Z,26.5255,-82.0032,2.33,26.91,11111222 
SCCF RECON,ioos:station:SCCF:13:1,2019-05-01T23:00:00Z,26.5255,-82.0032,2.33,26.85,11111222 
SCCF RECON,ioos:station:SCCF:13:1,2019-05-02T04:00:00Z,26.5255,-82.0032,2.33,26.57,11111222 
SCCF RECON,ioos:station:SCCF:13:1,2019-05-02T05:00:00Z,26.5255,-82.0032,2.33,26.32,11111222 
SCCF RECON,ioos:station:SCCF:13:1,2019-05-02T06:00:00Z,26.5255,-82.0032,2.33,26.28,11111222 
SCCF RECON,ioos:station:SCCF:13:1,2019-05-02T07:00:00Z,26.5255,-82.0032,2.33,26.29,11111222 
SCCF RECON,ioos:station:SCCF:13:1,2019-05-02T08:00:00Z,26.5255,-82.0032,2.33,26.3,11111222 
SCCF RECON,ioos:station:SCCF:13:1,2019-05-02T09:00:00Z,26.5255,-82.0032,2.33,26.02,11111222 
SCCF RECON,ioos:station:SCCF:13:1,2019-05-02T10:00:00Z,26.5255,-82.0032,2.33,25.81,11111222 
SCCF RECON,ioos:station:SCCF:13:1,2019-05-02T11:00:00Z,26.5255,-82.0032,2.33,25.79,11111222 
SCCF RECON,ioos:station:SCCF:13:1,2019-05-02T12:00:00Z,26.5255,-82.0032,2.33,25.72,11111222 
SCCF RECON,ioos:station:SCCF:13:1,2019-05-02T13:00:00Z,26.5255,-82.0032,2.33,25.73,11111222 
SCCF RECON,ioos:station:SCCF:13:1,2019-05-02T14:00:00Z,26.5255,-82.0032,2.33,26.05,11111222 
SCCF RECON,ioos:station:SCCF:13:1,2019-05-02T15:00:00Z,26.5255,-82.0032,2.33,26.24,11111222 
SCCF RECON,ioos:station:SCCF:13:1,2019-05-02T16:00:00Z,26.5255,-82.0032,2.33,26.29,11111222 
SCCF RECON,ioos:station:SCCF:13:1,2019-05-02T17:00:00Z,26.5255,-82.0032,2.33,26.39,11111222 
SCCF RECON,ioos:station:SCCF:13:1,2019-05-02T18:00:00Z,26.5255,-82.0032,2.33,26.71,11111222 
SCCF RECON,ioos:station:SCCF:13:1,2019-05-02T19:00:00Z,26.5255,-82.0032,2.33,27.21,11111222 
SCCF RECON,ioos:station:SCCF:13:1,2019-05-02T20:00:00Z,26.5255,-82.0032,2.33,27.36,11111222 
SCCF RECON,ioos:station:SCCF:13:1,2019-05-02T21:00:00Z,26.5255,-82.0032,2.33,27.45,11111222 
SCCF RECON,ioos:station:SCCF:13:1,2019-05-02T22:00:00Z,26.5255,-82.0032,2.33,27.57,11111222 
SCCF RECON,ioos:station:SCCF:13:1,2019-05-02T23:00:00Z,26.5255,-82.0032,2.33,27.53,11111222 
SCCF RECON,ioos:station:SCCF:13:1,2019-05-03T04:00:00Z,26.5255,-82.0032,2.33,27.26,11111222 
SCCF RECON,ioos:station:SCCF:13:1,2019-05-03T05:00:00Z,26.5255,-82.0032,2.33,27.38,11111222 
SCCF RECON,ioos:station:SCCF:13:1,2019-05-03T06:00:00Z,26.5255,-82.0032,2.33,27.19,11111222 
SCCF RECON,ioos:station:SCCF:13:1,2019-05-03T07:00:00Z,26.5255,-82.0032,2.33,27.12,11111222 
SCCF RECON,ioos:station:SCCF:13:1,2019-05-03T08:00:00Z,26.5255,-82.0032,2.33,27.08,11111222 
SCCF RECON,ioos:station:SCCF:13:1,2019-05-03T09:00:00Z,26.5255,-82.0032,2.33,27.11,11111222 
SCCF RECON,ioos:station:SCCF:13:1,2019-05-03T10:00:00Z,26.5255,-82.0032,2.33,27.01,11111222 
SCCF RECON,ioos:station:SCCF:13:1,2019-05-03T11:00:00Z,26.5255,-82.0032,2.33,26.81,11111222 
SCCF RECON,ioos:station:SCCF:13:1,2019-05-03T12:00:00Z,26.5255,-82.0032,2.33,26.71,11111222 
SCCF RECON,ioos:station:SCCF:13:1,2019-05-03T13:00:00Z,26.5255,-82.0032,2.33,26.67,11111222 
SCCF RECON,ioos:station:SCCF:13:1,2019-05-03T14:00:00Z,26.5255,-82.0032,2.33,26.93,11111222 
SCCF RECON,ioos:station:SCCF:13:1,2019-05-03T15:00:00Z,26.5255,-82.0032,2.33,27.18,11111222 
SCCF RECON,ioos:station:SCCF:13:1,2019-05-03T16:00:00Z,26.5255,-82.0032,2.33,27.47,11111222 
SCCF RECON,ioos:station:SCCF:13:1,2019-05-03T17:00:00Z,26.5255,-82.0032,2.33,27.59,11111222 
SCCF RECON,ioos:station:SCCF:13:1,2019-05-03T18:00:00Z,26.5255,-82.0032,2.33,27.68,11111222 
SCCF RECON,ioos:station:SCCF:13:1,2019-05-03T19:00:00Z,26.5255,-82.0032,2.33,28.01,11111222 
SCCF RECON,ioos:station:SCCF:13:1,2019-05-03T20:00:00Z,26.5255,-82.0032,2.33,28.19,11111222 
SCCF RECON,ioos:station:SCCF:13:1,2019-05-03T21:00:00Z,26.5255,-82.0032,2.33,28.43,11111222 
SCCF RECON,ioos:station:SCCF:13:1,2019-05-03T22:00:00Z,26.5255,-82.0032,2.33,28.64,11111222 
SCCF RECON,ioos:station:SCCF:13:1,2019-05-03T23:00:00Z,26.5255,-82.0032,2.33,28.64,11111222 
SCCF RECON,ioos:station:SCCF:13:1,2019-05-04T04:00:00Z,26.5255,-82.0032,2.33,28.3,11111222 
SCCF RECON,ioos:station:SCCF:13:1,2019-05-04T05:00:00Z,26.5255,-82.0032,2.33,28.37,11111222 
SCCF RECON,ioos:station:SCCF:13:1,2019-05-04T06:00:00Z,26.5255,-82.0032,2.33,28.4,11111222 
SCCF RECON,ioos:station:SCCF:13:1,2019-05-04T07:00:00Z,26.5255,-82.0032,2.33,28.3,11111222 
SCCF RECON,ioos:station:SCCF:13:1,2019-05-04T08:00:00Z,26.5255,-82.0032,2.33,28.2,11111222 
SCCF RECON,ioos:station:SCCF:13:1,2019-05-04T09:00:00Z,26.5255,-82.0032,2.33,28.22,11111222 
SCCF RECON,ioos:station:SCCF:13:1,2019-05-04T10:00:00Z,26.5255,-82.0032,2.33,27.97,11111222 
SCCF RECON,ioos:station:SCCF:13:1,2019-05-04T11:00:00Z,26.5255,-82.0032,2.33,27.52,11111222 
SCCF RECON,ioos:station:SCCF:13:1,2019-05-04T12:00:00Z,26.5255,-82.0032,2.33,27.56,11111222 
SCCF RECON,ioos:station:SCCF:13:1,2019-05-04T13:00:00Z,26.5255,-82.0032,2.33,27.55,11111222 
SCCF RECON,ioos:station:SCCF:13:1,2019-05-04T14:00:00Z,26.5255,-82.0032,2.33,27.64,11111222 
SCCF RECON,ioos:station:SCCF:13:1,2019-05-04T15:00:00Z,26.5255,-82.0032,2.33,27.99,11111222 
SCCF RECON,ioos:station:SCCF:13:1,2019-05-04T16:00:00Z,26.5255,-82.0032,2.33,28.38,11111222 
SCCF RECON,ioos:station:SCCF:13:1,2019-05-04T17:00:00Z,26.5255,-82.0032,2.33,28.47,11111222 
SCCF RECON,ioos:station:SCCF:13:1,2019-05-04T18:00:00Z,26.5255,-82.0032,2.33,28.45,11111222 
SCCF RECON,ioos:station:SCCF:13:1,2019-05-04T19:00:00Z,26.5255,-82.0032,2.33,28.62,11111222 
SCCF RECON,ioos:station:SCCF:13:1,2019-05-04T20:00:00Z,26.5255,-82.0032,2.33,28.82,11111222 
SCCF RECON,ioos:station:SCCF:13:1,2019-05-04T21:00:00Z,26.5255,-82.0032,2.33,28.97,11111222 
SCCF RECON,ioos:station:SCCF:13:1,2019-05-04T22:00:00Z,26.5255,-82.0032,2.33,29.11,11111222 
SCCF RECON,ioos:station:SCCF:13:1,2019-05-04T23:00:00Z,26.5255,-82.0032,2.33,29.32,11111222 
SCCF RECON,ioos:station:SCCF:13:1,2019-05-05T04:00:00Z,26.5255,-82.0032,2.33,28.8,11111222 
SCCF RECON,ioos:station:SCCF:13:1,2019-05-05T05:00:00Z,26.5255,-82.0032,2.33,28.9,11111222 
SCCF RECON,ioos:station:SCCF:13:1,2019-05-05T06:00:00Z,26.5255,-82.0032,2.33,28.98,11111222 
SCCF RECON,ioos:station:SCCF:13:1,2019-05-05T07:00:00Z,26.5255,-82.0032,2.33,28.82,11111222 
SCCF RECON,ioos:station:SCCF:13:1,2019-05-05T08:00:00Z,26.5255,-82.0032,2.33,28.61,11111222 
SCCF RECON,ioos:station:SCCF:13:1,2019-05-05T09:00:00Z,26.5255,-82.0032,2.33,28.57,11111222 
SCCF RECON,ioos:station:SCCF:13:1,2019-05-05T10:00:00Z,26.5255,-82.0032,2.33,28.6,11111222 
SCCF RECON,ioos:station:SCCF:13:1,2019-05-05T11:00:00Z,26.5255,-82.0032,2.33,28.55,11111222 
SCCF RECON,ioos:station:SCCF:13:1,2019-05-05T12:00:00Z,26.5255,-82.0032,2.33,28.17,11111222 
SCCF RECON,ioos:station:SCCF:13:1,2019-05-05T13:00:00Z,26.5255,-82.0032,2.33,28.15,11111222 
SCCF RECON,ioos:station:SCCF:13:1,2019-05-05T14:00:00Z,26.5255,-82.0032,2.33,28.27,11111222 
SCCF RECON,ioos:station:SCCF:13:1,2019-05-05T15:00:00Z,26.5255,-82.0032,2.33,28.48,11111222 
SCCF RECON,ioos:station:SCCF:13:1,2019-05-05T16:00:00Z,26.5255,-82.0032,2.33,28.73,11111222 
SCCF RECON,ioos:station:SCCF:13:1,2019-05-05T17:00:00Z,26.5255,-82.0032,2.33,28.83,11111222 
SCCF RECON,ioos:station:SCCF:13:1,2019-05-05T18:00:00Z,26.5255,-82.0032,2.33,28.8,11111222 
SCCF RECON,ioos:station:SCCF:13:1,2019-05-05T19:00:00Z,26.5255,-82.0032,2.33,28.73,11111222 
SCCF RECON,ioos:station:SCCF:13:1,2019-05-05T20:00:00Z,26.5255,-82.0032,2.33,28.82,11111222 
SCCF RECON,ioos:station:SCCF:13:1,2019-05-05T21:00:00Z,26.5255,-82.0032,2.33,28.93,11111222 
SCCF RECON,ioos:station:SCCF:13:1,2019-05-05T22:00:00Z,26.5255,-82.0032,2.33,29.12,11111222 
SCCF RECON,ioos:station:SCCF:13:1,2019-05-05T23:00:00Z,26.5255,-82.0032,2.33,29.17,11111222 
SCCF RECON,ioos:station:SCCF:13:1,2019-05-06T04:00:00Z,26.5255,-82.0032,2.33,29.02,11111222 
SCCF RECON,ioos:station:SCCF:13:1,2019-05-06T05:00:00Z,26.5255,-82.0032,2.33,29.01,11111222 
SCCF RECON,ioos:station:SCCF:13:1,2019-05-06T06:00:00Z,26.5255,-82.0032,2.33,28.85,11111222 
SCCF RECON,ioos:station:SCCF:13:1,2019-05-06T07:00:00Z,26.5255,-82.0032,2.33,28.88,11111222 
SCCF RECON,ioos:station:SCCF:13:1,2019-05-06T08:00:00Z,26.5255,-82.0032,2.33,28.79,11111222 
SCCF RECON,ioos:station:SCCF:13:1,2019-05-06T09:00:00Z,26.5255,-82.0032,2.33,28.66,11111222 
SCCF RECON,ioos:station:SCCF:13:1,2019-05-06T10:00:00Z,26.5255,-82.0032,2.33,28.58,11111222 
SCCF RECON,ioos:station:SCCF:13:1,2019-05-06T11:00:00Z,26.5255,-82.0032,2.33,28.62,11111222 
SCCF RECON,ioos:station:SCCF:13:1,2019-05-06T12:00:00Z,26.5255,-82.0032,2.33,28.54,11111222 
SCCF RECON,ioos:station:SCCF:13:1,2019-05-06T13:00:00Z,26.5255,-82.0032,2.33,28.36,11111222 
SCCF RECON,ioos:station:SCCF:13:1,2019-05-06T14:00:00Z,26.5255,-82.0032,2.33,28.49,11111222 
SCCF RECON,ioos:station:SCCF:13:1,2019-05-06T15:00:00Z,26.5255,-82.0032,2.33,28.66,11111222 
SCCF RECON,ioos:station:SCCF:13:1,2019-05-06T16:00:00Z,26.5255,-82.0032,2.33,28.88,11111222 
SCCF RECON,ioos:station:SCCF:13:1,2019-05-06T17:00:00Z,26.5255,-82.0032,2.33,28.95,11111222 
SCCF RECON,ioos:station:SCCF:13:1,2019-05-06T18:00:00Z,26.5255,-82.0032,2.33,28.96,11111222 
SCCF RECON,ioos:station:SCCF:13:1,2019-05-06T19:00:00Z,26.5255,-82.0032,2.33,29.02,11111222 
SCCF RECON,ioos:station:SCCF:13:1,2019-05-06T20:00:00Z,26.5255,-82.0032,2.33,29.07,11111222 
SCCF RECON,ioos:station:SCCF:13:1,2019-05-06T21:00:00Z,26.5255,-82.0032,2.33,29.11,11111222 
SCCF RECON,ioos:station:SCCF:13:1,2019-05-06T22:00:00Z,26.5255,-82.0032,2.33,29.25,11111222 
SCCF RECON,ioos:station:SCCF:13:1,2019-05-06T23:00:00Z,26.5255,-82.0032,2.33,29.3,11111222 
SCCF RECON,ioos:station:SCCF:13:1,2019-05-07T04:00:00Z,26.5255,-82.0032,2.33,29.2,11111222 
SCCF RECON,ioos:station:SCCF:13:1,2019-05-07T05:00:00Z,26.5255,-82.0032,2.33,29.16,11111222 
SCCF RECON,ioos:station:SCCF:13:1,2019-05-07T06:00:00Z,26.5255,-82.0032,2.33,28.95,11111222 
SCCF RECON,ioos:station:SCCF:13:1,2019-05-07T07:00:00Z,26.5255,-82.0032,2.33,29.02,11111222 
SCCF RECON,ioos:station:SCCF:13:1,2019-05-07T08:00:00Z,26.5255,-82.0032,2.33,28.94,11111222 
SCCF RECON,ioos:station:SCCF:13:1,2019-05-07T09:00:00Z,26.5255,-82.0032,2.33,28.8,11111222 
SCCF RECON,ioos:station:SCCF:13:1,2019-05-07T10:00:00Z,26.5255,-82.0032,2.33,28.68,11111222 
SCCF RECON,ioos:station:SCCF:13:1,2019-05-07T11:00:00Z,26.5255,-82.0032,2.33,28.71,11111222 
SCCF RECON,ioos:station:SCCF:13:1,2019-05-07T12:00:00Z,26.5255,-82.0032,2.33,28.72,11111222 
SCCF RECON,ioos:station:SCCF:13:1,2019-05-07T13:00:00Z,26.5255,-82.0032,2.33,28.64,11111222 
SCCF RECON,ioos:station:SCCF:13:1,2019-05-07T14:00:00Z,26.5255,-82.0032,2.33,28.62,11111222 
SCCF RECON,ioos:station:SCCF:13:1,2019-05-07T15:00:00Z,26.5255,-82.0032,2.33,28.66,11111222 
SCCF RECON,ioos:station:SCCF:13:1,2019-05-07T16:00:00Z,26.5255,-82.0032,2.33,28.83,11111222 
SCCF RECON,ioos:station:SCCF:13:1,2019-05-07T17:00:00Z,26.5255,-82.0032,2.33,29.06,11111222 
SCCF RECON,ioos:station:SCCF:13:1,2019-05-07T18:00:00Z,26.5255,-82.0032,2.33,29.27,11111222 
SCCF RECON,ioos:station:SCCF:13:1,2019-05-07T19:00:00Z,26.5255,-82.0032,2.33,29.39,11111222 
SCCF RECON,ioos:station:SCCF:13:1,2019-05-07T20:00:00Z,26.5255,-82.0032,2.33,29.66,11111222 
SCCF RECON,ioos:station:SCCF:13:1,2019-05-07T21:00:00Z,26.5255,-82.0032,2.33,29.62,11111222 
SCCF RECON,ioos:station:SCCF:13:1,2019-05-07T22:00:00Z,26.5255,-82.0032,2.33,29.68,11111222 
SCCF RECON,ioos:station:SCCF:13:1,2019-05-07T23:00:00Z,26.5255,-82.0032,2.33,29.82,11111222 
SCCF RECON,ioos:station:SCCF:13:1,2019-05-08T04:00:00Z,26.5255,-82.0032,2.33,29.49,11111222 
SCCF RECON,ioos:station:SCCF:13:1,2019-05-08T05:00:00Z,26.5255,-82.0032,2.33,29.4,11111222 
SCCF RECON,ioos:station:SCCF:13:1,2019-05-08T06:00:00Z,26.5255,-82.0032,2.33,29.35,11111222 
SCCF RECON,ioos:station:SCCF:13:1,2019-05-08T07:00:00Z,26.5255,-82.0032,2.33,28.91,11111222 
SCCF RECON,ioos:station:SCCF:13:1,2019-05-08T08:00:00Z,26.5255,-82.0032,2.33,29.09,11111222 
SCCF RECON,ioos:station:SCCF:13:1,2019-05-08T09:00:00Z,26.5255,-82.0032,2.33,28.84,11111222 
SCCF RECON,ioos:station:SCCF:13:1,2019-05-08T11:00:00Z,26.5255,-82.0032,2.33,28.66,11111222 
SCCF RECON,ioos:station:SCCF:13:1,2019-05-08T12:00:00Z,26.5255,-82.0032,2.33,28.67,11111222 
SCCF RECON,ioos:station:SCCF:13:1,2019-05-08T13:00:00Z,26.5255,-82.0032,2.33,28.73,11111222 
SCCF RECON,ioos:station:SCCF:13:1,2019-05-08T14:00:00Z,26.5255,-82.0032,2.33,28.75,11111222 
SCCF RECON,ioos:station:SCCF:13:1,2019-05-08T15:00:00Z,26.5255,-82.0032,2.33,28.68,11111222 
SCCF RECON,ioos:station:SCCF:13:1,2019-05-08T16:00:00Z,26.5255,-82.0032,2.33,28.99,11111222 
SCCF RECON,ioos:station:SCCF:13:1,2019-05-08T18:00:00Z,26.5255,-82.0032,2.33,29.43,11111222 
SCCF RECON,ioos:station:SCCF:13:1,2019-05-08T19:00:00Z,26.5255,-82.0032,2.33,29.29,11111222 
SCCF RECON,ioos:station:SCCF:13:1,2019-05-08T20:00:00Z,26.5255,-82.0032,2.33,29.39,11111222 
SCCF RECON,ioos:station:SCCF:13:1,2019-05-08T21:00:00Z,26.5255,-82.0032,2.33,29.48,11111222 
SCCF RECON,ioos:station:SCCF:13:1,2019-05-08T22:00:00Z,26.5255,-82.0032,2.33,29.53,11111222 
SCCF RECON,ioos:station:SCCF:13:1,2019-05-08T23:00:00Z,26.5255,-82.0032,2.33,29.42,11111222 
SCCF RECON,ioos:station:SCCF:13:1,2019-05-09T04:00:00Z,26.5255,-82.0032,2.33,29.15,11111222 
SCCF RECON,ioos:station:SCCF:13:1,2019-05-09T05:00:00Z,26.5255,-82.0032,2.33,29.08,11111222 
SCCF RECON,ioos:station:SCCF:13:1,2019-05-09T06:00:00Z,26.5255,-82.0032,2.33,28.93,11111222 
SCCF RECON,ioos:station:SCCF:13:1,2019-05-09T07:00:00Z,26.5255,-82.0032,2.33,28.88,11111222 
SCCF RECON,ioos:station:SCCF:13:1,2019-05-09T08:00:00Z,26.5255,-82.0032,2.33,28.65,11111222 
SCCF RECON,ioos:station:SCCF:13:1,2019-05-09T09:00:00Z,26.5255,-82.0032,2.33,28.77,11111222 
SCCF RECON,ioos:station:SCCF:13:1,2019-05-09T10:00:00Z,26.5255,-82.0032,2.33,28.7,11111222 
SCCF RECON,ioos:station:SCCF:13:1,2019-05-09T11:00:00Z,26.5255,-82.0032,2.33,28.42,11111222 
SCCF RECON,ioos:station:SCCF:13:1,2019-05-09T12:00:00Z,26.5255,-82.0032,2.33,28.39,11111222 
SCCF RECON,ioos:station:SCCF:13:1,2019-05-09T13:00:00Z,26.5255,-82.0032,2.33,28.37,11111222 
SCCF RECON,ioos:station:SCCF:13:1,2019-05-09T14:00:00Z,26.5255,-82.0032,2.33,28.45,11111222 
SCCF RECON,ioos:station:SCCF:13:1,2019-05-09T15:00:00Z,26.5255,-82.0032,2.33,28.55,11111222 
SCCF RECON,ioos:station:SCCF:13:1,2019-05-09T16:00:00Z,26.5255,-82.0032,2.33,28.74,11111222 
SCCF RECON,ioos:station:SCCF:13:1,2019-05-09T17:00:00Z,26.5255,-82.0032,2.33,29.14,11111222 
SCCF RECON,ioos:station:SCCF:13:1,2019-05-09T18:00:00Z,26.5255,-82.0032,2.33,29.41,11111222 
SCCF RECON,ioos:station:SCCF:13:1,2019-05-09T19:00:00Z,26.5255,-82.0032,2.33,29.38,11111222 
SCCF RECON,ioos:station:SCCF:13:1,2019-05-09T20:00:00Z,26.5255,-82.0032,2.33,29.32,11111222 
SCCF RECON,ioos:station:SCCF:13:1,2019-05-09T21:00:00Z,26.5255,-82.0032,2.33,29.42,11111222 
SCCF RECON,ioos:station:SCCF:13:1,2019-05-09T22:00:00Z,26.5255,-82.0032,2.33,29.35,11111222 
SCCF RECON,ioos:station:SCCF:13:1,2019-05-09T23:00:00Z,26.5255,-82.0032,2.33,29.15,11111222 
SCCF RECON,ioos:station:SCCF:13:1,2019-05-10T04:00:00Z,26.5255,-82.0032,2.33,28.67,11111222 
SCCF RECON,ioos:station:SCCF:13:1,2019-05-10T05:00:00Z,26.5255,-82.0032,2.33,28.65,11111222 
SCCF RECON,ioos:station:SCCF:13:1,2019-05-10T06:00:00Z,26.5255,-82.0032,2.33,28.54,11111222 
SCCF RECON,ioos:station:SCCF:13:1,2019-05-10T07:00:00Z,26.5255,-82.0032,2.33,28.45,11111222 
SCCF RECON,ioos:station:SCCF:13:1,2019-05-10T08:00:00Z,26.5255,-82.0032,2.33,28.3,11111222 
SCCF RECON,ioos:station:SCCF:13:1,2019-05-10T09:00:00Z,26.5255,-82.0032,2.33,28.13,11111222 
SCCF RECON,ioos:station:SCCF:13:1,2019-05-10T10:00:00Z,26.5255,-82.0032,2.33,27.95,11111222 
SCCF RECON,ioos:station:SCCF:13:1,2019-05-10T11:00:00Z,26.5255,-82.0032,2.33,27.97,11111222 
SCCF RECON,ioos:station:SCCF:13:1,2019-05-10T12:00:00Z,26.5255,-82.0032,2.33,28.05,11111222 
SCCF RECON,ioos:station:SCCF:13:1,2019-05-10T13:00:00Z,26.5255,-82.0032,2.33,28.04,11111222 
SCCF RECON,ioos:station:SCCF:13:1,2019-05-10T14:00:00Z,26.5255,-82.0032,2.33,28.25,11111222 
SCCF RECON,ioos:station:SCCF:13:1,2019-05-10T15:00:00Z,26.5255,-82.0032,2.33,28.5,11111222 
SCCF RECON,ioos:station:SCCF:13:1,2019-05-10T16:00:00Z,26.5255,-82.0032,2.33,28.74,11111222 
SCCF RECON,ioos:station:SCCF:13:1,2019-05-10T17:00:00Z,26.5255,-82.0032,2.33,28.97,11111222 
SCCF RECON,ioos:station:SCCF:13:1,2019-05-10T18:00:00Z,26.5255,-82.0032,2.33,29.29,11111222 
SCCF RECON,ioos:station:SCCF:13:1,2019-05-10T19:00:00Z,26.5255,-82.0032,2.33,29.45,11111222 
SCCF RECON,ioos:station:SCCF:13:1,2019-05-10T20:00:00Z,26.5255,-82.0032,2.33,29.67,11111222 
SCCF RECON,ioos:station:SCCF:13:1,2019-05-10T21:00:00Z,26.5255,-82.0032,2.33,29.64,11111222 
SCCF RECON,ioos:station:SCCF:13:1,2019-05-10T22:00:00Z,26.5255,-82.0032,2.33,29.62,11111222 
SCCF RECON,ioos:station:SCCF:13:1,2019-05-10T23:00:00Z,26.5255,-82.0032,2.33,29.6,11111222 
SCCF RECON,ioos:station:SCCF:13:1,2019-05-11T04:00:00Z,26.5255,-82.0032,2.33,29.07,11111222 
SCCF RECON,ioos:station:SCCF:13:1,2019-05-11T05:00:00Z,26.5255,-82.0032,2.33,28.94,11111222 
SCCF RECON,ioos:station:SCCF:13:1,2019-05-11T06:00:00Z,26.5255,-82.0032,2.33,28.8,11111222 
SCCF RECON,ioos:station:SCCF:13:1,2019-05-11T07:00:00Z,26.5255,-82.0032,2.33,28.68,11111222 
SCCF RECON,ioos:station:SCCF:13:1,2019-05-11T08:00:00Z,26.5255,-82.0032,2.33,28.56,11111222 
SCCF RECON,ioos:station:SCCF:13:1,2019-05-11T09:00:00Z,26.5255,-82.0032,2.33,28.39,11111222 
SCCF RECON,ioos:station:SCCF:13:1,2019-05-11T10:00:00Z,26.5255,-82.0032,2.33,28.37,11111222 
SCCF RECON,ioos:station:SCCF:13:1,2019-05-11T11:00:00Z,26.5255,-82.0032,2.33,28.41,11111222 
SCCF RECON,ioos:station:SCCF:13:1,2019-05-11T12:00:00Z,26.5255,-82.0032,2.33,28.54,11111222 
SCCF RECON,ioos:station:SCCF:13:1,2019-05-11T13:00:00Z,26.5255,-82.0032,2.33,28.59,11111222 
SCCF RECON,ioos:station:SCCF:13:1,2019-05-13T14:00:00Z,26.5255,-82.0032,2.33,29.5,11111222 
SCCF RECON,ioos:station:SCCF:13:1,2019-05-13T15:00:00Z,26.5255,-82.0032,2.33,29.63,11111222 
SCCF RECON,ioos:station:SCCF:13:1,2019-05-13T16:00:00Z,26.5255,-82.0032,2.33,29.8,11111222 
SCCF RECON,ioos:station:SCCF:13:1,2019-05-13T17:00:00Z,26.5255,-82.0032,2.33,30.09,11111222 
SCCF RECON,ioos:station:SCCF:13:1,2019-05-13T18:00:00Z,26.5255,-82.0032,2.33,30.18,11111222 
SCCF RECON,ioos:station:SCCF:13:1,2019-05-13T19:00:00Z,26.5255,-82.0032,2.33,30.47,11111222 
SCCF RECON,ioos:station:SCCF:13:1,2019-05-13T20:00:00Z,26.5255,-82.0032,2.33,30.56,11111222 
SCCF RECON,ioos:station:SCCF:13:1,2019-05-13T21:00:00Z,26.5255,-82.0032,2.33,30.64,11111222 
SCCF RECON,ioos:station:SCCF:13:1,2019-05-13T22:00:00Z,26.5255,-82.0032,2.33,30.62,11111222 
SCCF RECON,ioos:station:SCCF:13:1,2019-05-13T23:00:00Z,26.5255,-82.0032,2.33,30.46,11111222 
SCCF RECON,ioos:station:SCCF:13:1,2019-05-14T04:00:00Z,26.5255,-82.0032,2.33,30.13,11111222 
SCCF RECON,ioos:station:SCCF:13:1,2019-05-14T06:00:00Z,26.5255,-82.0032,2.33,29.8,11111222 
SCCF RECON,ioos:station:SCCF:13:1,2019-05-14T07:00:00Z,26.5255,-82.0032,2.33,29.64,11111222 
SCCF RECON,ioos:station:SCCF:13:1,2019-05-14T08:00:00Z,26.5255,-82.0032,2.33,29.65,11111222 
SCCF RECON,ioos:station:SCCF:13:1,2019-05-14T09:00:00Z,26.5255,-82.0032,2.33,29.48,11111222 
SCCF RECON,ioos:station:SCCF:13:1,2019-05-14T10:00:00Z,26.5255,-82.0032,2.33,29.48,11111222 
SCCF RECON,ioos:station:SCCF:13:1,2019-05-14T12:00:00Z,26.5255,-82.0032,2.33,29.19,11111222 
SCCF RECON,ioos:station:SCCF:13:1,2019-05-14T13:00:00Z,26.5255,-82.0032,2.33,29.37,11111222 
SCCF RECON,ioos:station:SCCF:13:1,2019-05-14T14:00:00Z,26.5255,-82.0032,2.33,29.56,11111222 
SCCF RECON,ioos:station:SCCF:13:1,2019-05-14T15:00:00Z,26.5255,-82.0032,2.33,29.58,11111222 
SCCF RECON,ioos:station:SCCF:13:1,2019-05-14T16:00:00Z,26.5255,-82.0032,2.33,29.57,11111222 
SCCF RECON,ioos:station:SCCF:13:1,2019-05-14T17:00:00Z,26.5255,-82.0032,2.33,29.68,11111222 
SCCF RECON,ioos:station:SCCF:13:1,2019-05-14T18:00:00Z,26.5255,-82.0032,2.33,29.71,11111222 
SCCF RECON,ioos:station:SCCF:13:1,2019-05-14T19:00:00Z,26.5255,-82.0032,2.33,29.78,11111222 
SCCF RECON,ioos:station:SCCF:13:1,2019-05-14T20:00:00Z,26.5255,-82.0032,2.33,29.79,11111222 
SCCF RECON,ioos:station:SCCF:13:1,2019-05-14T21:00:00Z,26.5255,-82.0032,2.33,29.73,11111222 
SCCF RECON,ioos:station:SCCF:13:1,2019-05-14T22:00:00Z,26.5255,-82.0032,2.33,29.63,11111222 
SCCF RECON,ioos:station:SCCF:13:1,2019-05-14T23:00:00Z,26.5255,-82.0032,2.33,29.55,11111222 
SCCF RECON,ioos:station:SCCF:13:1,2019-05-15T04:00:00Z,26.5255,-82.0032,2.33,29.37,11111222 
SCCF RECON,ioos:station:SCCF:13:1,2019-05-15T05:00:00Z,26.5255,-82.0032,2.33,29.22,11111222 
SCCF RECON,ioos:station:SCCF:13:1,2019-05-15T06:00:00Z,26.5255,-82.0032,2.33,29.2,11111222 
SCCF RECON,ioos:station:SCCF:13:1,2019-05-15T07:00:00Z,26.5255,-82.0032,2.33,29.03,11111222 
SCCF RECON,ioos:station:SCCF:13:1,2019-05-15T08:00:00Z,26.5255,-82.0032,2.33,28.71,11111222 
SCCF RECON,ioos:station:SCCF:13:1,2019-05-15T09:00:00Z,26.5255,-82.0032,2.33,28.56,11111222 
SCCF RECON,ioos:station:SCCF:13:1,2019-05-15T10:00:00Z,26.5255,-82.0032,2.33,28.53,11111222 
SCCF RECON,ioos:station:SCCF:13:1,2019-05-15T11:00:00Z,26.5255,-82.0032,2.33,28.72,11111222 
SCCF RECON,ioos:station:SCCF:13:1,2019-05-15T12:00:00Z,26.5255,-82.0032,2.33,28.74,11111222 
SCCF RECON,ioos:station:SCCF:13:1,2019-05-15T13:00:00Z,26.5255,-82.0032,2.33,28.46,11111222 
SCCF RECON,ioos:station:SCCF:13:1,2019-05-15T14:00:00Z,26.5255,-82.0032,2.33,28.54,11111222 
SCCF RECON,ioos:station:SCCF:13:1,2019-05-15T15:00:00Z,26.5255,-82.0032,2.33,28.54,11111222 
SCCF RECON,ioos:station:SCCF:13:1,2019-05-15T16:00:00Z,26.5255,-82.0032,2.33,28.72,11111222 
SCCF RECON,ioos:station:SCCF:13:1,2019-05-15T17:00:00Z,26.5255,-82.0032,2.33,28.89,11111222 
SCCF RECON,ioos:station:SCCF:13:1,2019-05-15T18:00:00Z,26.5255,-82.0032,2.33,29.0,11111222 
SCCF RECON,ioos:station:SCCF:13:1,2019-05-15T19:00:00Z,26.5255,-82.0032,2.33,29.11,11111222 
SCCF RECON,ioos:station:SCCF:13:1,2019-05-15T20:00:00Z,26.5255,-82.0032,2.33,29.36,11111222 
SCCF RECON,ioos:station:SCCF:13:1,2019-05-15T21:00:00Z,26.5255,-82.0032,2.33,29.48,11111222 
SCCF RECON,ioos:station:SCCF:13:1,2019-05-15T22:00:00Z,26.5255,-82.0032,2.33,29.36,11111222 
SCCF RECON,ioos:station:SCCF:13:1,2019-05-15T23:00:00Z,26.5255,-82.0032,2.33,29.2,11111222 
SCCF RECON,ioos:station:SCCF:13:1,2019-05-16T04:00:00Z,26.5255,-82.0032,2.33,29.05,11111222 